Météo par heure à Encamp

Ce jour, 1 Octobre, Jeudi

Heure Température Précipitation Vent Pression Humidité
00:00 +7°C° 0 mm 1 m/s 620 mmHg 70%
01:00 +8°C° 0 mm 1 m/s 620 mmHg 69%
02:00 +7°C° 0 mm 2 m/s 619 mmHg 68%
03:00 +7°C° 0 mm 2 m/s 619 mmHg 67%
04:00 +7°C° 0 mm 2 m/s 619 mmHg 67%
05:00 +7°C° 0 mm 2 m/s 618 mmHg 66%
06:00 +7°C° 0 mm 1 m/s 618 mmHg 66%
07:00 +9°C° 0 mm 1 m/s 619 mmHg 63%
08:00 +11°C° 0 mm 1 m/s 620 mmHg 60%
09:00 +13°C° 0 mm 1 m/s 620 mmHg 58%
10:00 +13°C° 0 mm 1 m/s 621 mmHg 58%
11:00 +14°C° 0 mm 2 m/s 621 mmHg 57%
12:00 +15°C° 0 mm 2 m/s 621 mmHg 57%
13:00 +14°C° 0 mm 2 m/s 620 mmHg 61%
14:00 +14°C° 0 mm 2 m/s 620 mmHg 64%
15:00 +13°C° 0 mm 2 m/s 619 mmHg 67%
16:00 +12°C° 0 mm 2 m/s 618 mmHg 73%
17:00 +10°C° 0 mm 1 m/s 618 mmHg 78%
18:00 +9°C° 0 mm 1 m/s 617 mmHg 84%
19:00 +8°C° 0 mm 1 m/s 617 mmHg 86%
20:00 +7°C° 0 mm 2 m/s 616 mmHg 88%
21:00 +6°C° 0 mm 2 m/s 616 mmHg 90%
22:00 +5°C° 0 mm 3 m/s 615 mmHg 90%
23:00 +7°C° 0 mm 3 m/s 614 mmHg 91%

Demain, 2 Octobre, Vendredi

Heure Température Précipitation Vent Pression Humidité
00:00 +6°C° 0 mm 4 m/s 613 mmHg 91%
01:00 +6°C° 0.1 mm 4 m/s 612 mmHg 91%
02:00 +7°C° 0.1 mm 3 m/s 611 mmHg 92%
03:00 +7°C° 0.1 mm 3 m/s 610 mmHg 92%
04:00 +7°C° 0.3 mm 3 m/s 609 mmHg 92%
05:00 +7°C° 0.3 mm 3 m/s 608 mmHg 93%
06:00 +5°C° 0.3 mm 3 m/s 608 mmHg 94%
07:00 +7°C° 1.8 mm 3 m/s 607 mmHg 94%
08:00 +7°C° 1.8 mm 3 m/s 607 mmHg 94%
09:00 +6°C° 1.8 mm 4 m/s 606 mmHg 95%
10:00 +5°C° 3.8 mm 3 m/s 606 mmHg 96%
11:00 +4°C° 3.8 mm 3 m/s 606 mmHg 97%
12:00 +5°C° 3.8 mm 2 m/s 606 mmHg 99%
13:00 +4°C° 2.8 mm 2 m/s 606 mmHg 98%
14:00 +4°C° 2.8 mm 1 m/s 606 mmHg 97%
15:00 +4°C° 2.8 mm 1 m/s 606 mmHg 95%
16:00 +3°C° 0.8 mm 1 m/s 606 mmHg 96%
17:00 +1°C° 0.8 mm 2 m/s 606 mmHg 96%
18:00 -1°C° 0.8 mm 2 m/s 606 mmHg 96%
19:00 -1°C° 0.5 mm 2 m/s 606 mmHg 95%
20:00 0°C° 0.5 mm 1 m/s 607 mmHg 93%
21:00 -1°C° 0.5 mm 1 m/s 607 mmHg 92%
22:00 0°C° 0 mm 1 m/s 607 mmHg 92%
23:00 -2°C° 0 mm 2 m/s 607 mmHg 92%

Après-demain, 3 Octobre, Samedi

Heure Température Précipitation Vent Pression Humidité
00:00 -2°C° 0 mm 2 m/s 607 mmHg 92%
01:00 -2°C° 0 mm 2 m/s 607 mmHg 92%
02:00 -2°C° 0 mm 2 m/s 607 mmHg 92%
03:00 -2°C° 0 mm 2 m/s 607 mmHg 92%
04:00 -2°C° 0 mm 2 m/s 608 mmHg 93%
05:00 -2°C° 0 mm 2 m/s 608 mmHg 93%
06:00 -2°C° 0 mm 2 m/s 608 mmHg 93%
07:00 +1°C° 0 mm 2 m/s 609 mmHg 91%
08:00 +2°C° 0 mm 2 m/s 610 mmHg 89%
09:00 +5°C° 0 mm 1 m/s 611 mmHg 87%
10:00 +4°C° 0.1 mm 2 m/s 611 mmHg 87%
11:00 +4°C° 0.1 mm 2 m/s 611 mmHg 86%
12:00 +5°C° 0.1 mm 2 m/s 611 mmHg 86%
13:00 +5°C° 0.2 mm 2 m/s 611 mmHg 86%
14:00 +5°C° 0.2 mm 2 m/s 612 mmHg 85%
15:00 +6°C° 0.2 mm 1 m/s 612 mmHg 84%
16:00 +5°C° 0 mm 1 m/s 612 mmHg 88%
17:00 +4°C° 0 mm 1 m/s 612 mmHg 91%
18:00 +3°C° 0 mm 1 m/s 612 mmHg 94%
19:00 +3°C° 0 mm 1 m/s 613 mmHg 94%
20:00 +2°C° 0 mm 1 m/s 613 mmHg 95%
21:00 +2°C° 0 mm 1 m/s 614 mmHg 95%
22:00 +2°C° 0 mm 1 m/s 613 mmHg 95%
23:00 +1°C° 0 mm 1 m/s 613 mmHg 94%

4 Octobre, Dimanche

Heure Température Précipitation Vent Pression Humidité
00:00 -1°C° 0 mm 2 m/s 612 mmHg 94%
01:00 -1°C° 0 mm 2 m/s 612 mmHg 94%
02:00 0°C° 0 mm 1 m/s 612 mmHg 93%
03:00 0°C° 0 mm 1 m/s 611 mmHg 92%
04:00 0°C° 0 mm 1 m/s 611 mmHg 92%
05:00 0°C° 0 mm 1 m/s 611 mmHg 91%
06:00 0°C° 0 mm 1 m/s 611 mmHg 91%
07:00 +2°C° 0 mm 1 m/s 612 mmHg 89%
08:00 +3°C° 0 mm 1 m/s 613 mmHg 87%
09:00 +4°C° 0 mm 1 m/s 613 mmHg 85%
10:00 +5°C° 0.1 mm 1 m/s 613 mmHg 85%
11:00 +5°C° 0.1 mm 1 m/s 613 mmHg 86%
12:00 +5°C° 0.1 mm 1 m/s 613 mmHg 87%
13:00 +6°C° 0.2 mm 1 m/s 614 mmHg 84%
14:00 +6°C° 0.2 mm 1 m/s 614 mmHg 81%
15:00 +7°C° 0.2 mm 1 m/s 614 mmHg 78%
16:00 +5°C° 0.2 mm 1 m/s 614 mmHg 83%
17:00 +4°C° 0.2 mm 1 m/s 613 mmHg 89%
18:00 +2°C° 0.2 mm 0 m/s 613 mmHg 94%
19:00 +3°C° 0.1 mm 1 m/s 614 mmHg 94%
20:00 +2°C° 0.1 mm 1 m/s 614 mmHg 94%
21:00 +2°C° 0.1 mm 1 m/s 615 mmHg 94%
22:00 +2°C° 0.2 mm 1 m/s 615 mmHg 94%
23:00 +2°C° 0.2 mm 1 m/s 615 mmHg 94%

5 Octobre, Lundi

Heure Température Précipitation Vent Pression Humidité
00:00 +2°C° 0.2 mm 1 m/s 615 mmHg 94%
01:00 +1°C° 0 mm 1 m/s 615 mmHg 93%
02:00 +1°C° 0 mm 1 m/s 615 mmHg 92%
03:00 +1°C° 0 mm 1 m/s 615 mmHg 92%
04:00 +1°C° 0 mm 1 m/s 615 mmHg 92%
05:00 +1°C° 0 mm 1 m/s 615 mmHg 92%
06:00 +1°C° 0 mm 1 m/s 616 mmHg 92%
07:00 +3°C° 0 mm 1 m/s 617 mmHg 86%
08:00 +5°C° 0 mm 1 m/s 618 mmHg 80%
09:00 +7°C° 0 mm 1 m/s 619 mmHg 74%
10:00 +7°C° 0.3 mm 1 m/s 620 mmHg 74%
11:00 +8°C° 0.3 mm 1 m/s 620 mmHg 74%
12:00 +8°C° 0.3 mm 1 m/s 620 mmHg 74%
13:00 +8°C° 0.2 mm 1 m/s 620 mmHg 75%
14:00 +8°C° 0.2 mm 1 m/s 620 mmHg 75%
15:00 +8°C° 0.2 mm 1 m/s 620 mmHg 76%
16:00 +7°C° 0.2 mm 1 m/s 621 mmHg 82%
17:00 +6°C° 0.2 mm 1 m/s 621 mmHg 87%
18:00 +5°C° 0.2 mm 1 m/s 621 mmHg 93%
19:00 +4°C° 0 mm 1 m/s 621 mmHg 93%
20:00 +3°C° 0 mm 1 m/s 621 mmHg 93%
21:00 +3°C° 0 mm 1 m/s 621 mmHg 93%
22:00 +3°C° 0 mm 1 m/s 621 mmHg 92%
23:00 +2°C° 0 mm 1 m/s 621 mmHg 91%

6 Octobre, Mardi

Heure Température Précipitation Vent Pression Humidité
00:00 +2°C° 0 mm 1 m/s 621 mmHg 90%
01:00 +2°C° 0 mm 1 m/s 620 mmHg 88%
02:00 +2°C° 0 mm 1 m/s 620 mmHg 87%
03:00 +2°C° 0 mm 1 m/s 620 mmHg 86%
04:00 +2°C° 0 mm 1 m/s 620 mmHg 83%
05:00 +2°C° 0 mm 1 m/s 620 mmHg 80%
06:00 +2°C° 0 mm 1 m/s 620 mmHg 78%
07:00 +4°C° 0 mm 1 m/s 621 mmHg 74%
08:00 +7°C° 0 mm 1 m/s 622 mmHg 69%
09:00 +9°C° 0 mm 1 m/s 623 mmHg 65%
10:00 +9°C° 0 mm 1 m/s 623 mmHg 68%
11:00 +9°C° 0 mm 1 m/s 623 mmHg 70%
12:00 +9°C° 0 mm 1 m/s 623 mmHg 72%
13:00 +9°C° 0.3 mm 1 m/s 623 mmHg 74%
14:00 +9°C° 0.3 mm 1 m/s 622 mmHg 76%
15:00 +9°C° 0.3 mm 1 m/s 622 mmHg 78%
16:00 +9°C° 0.5 mm 1 m/s 622 mmHg 82%
17:00 +8°C° 0.5 mm 1 m/s 622 mmHg 86%
18:00 +8°C° 0.5 mm 1 m/s 622 mmHg 90%
19:00 +8°C° 0.8 mm 1 m/s 622 mmHg 90%
20:00 +8°C° 0.8 mm 1 m/s 622 mmHg 91%
21:00 +8°C° 0.8 mm 1 m/s 623 mmHg 92%
22:00 +8°C° 0.6 mm 1 m/s 623 mmHg 93%
23:00 +8°C° 0.6 mm 1 m/s 623 mmHg 93%
Voir plus

We Need Your Consent

Meteoprog and our Service Providers may store and access personal data such as cookies, device identifiers or other similar technologies on your device and process such data to personalise content and ads, as well as provide social media features and to analyse the traffic.

  • Store and/or access information on your device

    Cookies, device identifiers or other information can be stored or accessed on your device for the purposes indicated above.

  • Personalised ads and content, ad and content measurement, audience insights, and products development

    Ads and content can be personalised based on a profile. More data can be added to better personalise ads and content. Ad and content performance can be measured. Insights about the audience who saw the ads and content can be derived. Such data can be used to develop or improve user’s experience, systems and software.

By clicking ‘I Agree’ you will allow the use of indicated cookies, device identifiers, web beacons or other similar technologies. Your settings can be changed in the browser on your device.

For certain purposes, legitimate interests may be relied on, rather than consent. You can read more about this in our Privacy and Cookie Policy.